When you browse on this site, cookies collect data to enhance your experience and personalize the content and advertising you see.
Visit our Privacy Policy to learn more. By continuing to use the site, you agree to this use of cookies and data.
  • In Austria
  • List of Countries
  • For 7 days
  • Water Temperature
  • Weather Map
  • News
  • Weather Widgets
  • user-avatar
    Login

    Hourly Weather Silvania

    Today, 23 November, Saturday

    Time Temperature Precipitation Wind Pressure Humidity
    00:00 +18°C° 0.4 mm 1 mps 634 mmHg 87%
    01:00 +18°C° 0.4 mm 1 mps 634 mmHg 87%
    02:00 +18°C° 0 mm 1 mps 634 mmHg 87%
    03:00 +18°C° 0 mm 1 mps 634 mmHg 87%
    04:00 +16°C° 0 mm 1 mps 633 mmHg 88%
    05:00 +18°C° 0 mm 1 mps 634 mmHg 86%
    06:00 +17°C° 0 mm 0 mps 635 mmHg 85%
    07:00 +17°C° 0 mm 0 mps 636 mmHg 83%
    08:00 +21°C° 0.1 mm 1 mps 636 mmHg 80%
    09:00 +22°C° 0.1 mm 1 mps 637 mmHg 77%
    10:00 +24°C° 0.1 mm 2 mps 637 mmHg 74%
    11:00 +24°C° 0.5 mm 2 mps 636 mmHg 76%
    12:00 +24°C° 0.5 mm 2 mps 636 mmHg 78%
    13:00 +24°C° 0.5 mm 2 mps 635 mmHg 80%
    14:00 +24°C° 0.6 mm 1 mps 634 mmHg 82%
    15:00 +23°C° 0.6 mm 1 mps 634 mmHg 83%
    16:00 +23°C° 0.6 mm 1 mps 633 mmHg 84%
    17:00 +22°C° 0.6 mm 1 mps 634 mmHg 86%
    18:00 +21°C° 0.6 mm 1 mps 634 mmHg 89%
    19:00 +20°C° 0.6 mm 1 mps 634 mmHg 91%
    20:00 +20°C° 0.5 mm 1 mps 635 mmHg 90%
    21:00 +19°C° 0.5 mm 1 mps 635 mmHg 90%
    22:00 +19°C° 0.5 mm 1 mps 635 mmHg 89%
    23:00 +19°C° 0.4 mm 1 mps 635 mmHg 89%

    Tomorrow, 24 November, Sunday

    Time Temperature Precipitation Wind Pressure Humidity
    00:00 +19°C° 0.4 mm 1 mps 635 mmHg 89%
    01:00 +19°C° 0.4 mm 1 mps 634 mmHg 89%
    02:00 +17°C° 0.2 mm 0 mps 634 mmHg 88%
    03:00 +17°C° 0.2 mm 0 mps 634 mmHg 88%
    04:00 +17°C° 0.2 mm 0 mps 634 mmHg 88%
    05:00 +17°C° 0 mm 0 mps 634 mmHg 87%
    06:00 +17°C° 0 mm 0 mps 635 mmHg 86%
    07:00 +18°C° 0 mm 0 mps 636 mmHg 85%
    08:00 +21°C° 0 mm 1 mps 636 mmHg 82%
    09:00 +22°C° 0 mm 1 mps 637 mmHg 79%
    10:00 +23°C° 0 mm 1 mps 637 mmHg 76%
    11:00 +24°C° 0.3 mm 1 mps 636 mmHg 77%
    12:00 +24°C° 0.3 mm 1 mps 635 mmHg 78%
    13:00 +24°C° 0.3 mm 1 mps 634 mmHg 79%
    14:00 +24°C° 0.4 mm 1 mps 634 mmHg 80%
    15:00 +23°C° 0.4 mm 1 mps 633 mmHg 82%
    16:00 +23°C° 0.4 mm 1 mps 633 mmHg 84%
    17:00 +22°C° 0.6 mm 1 mps 633 mmHg 86%
    18:00 +21°C° 0.6 mm 1 mps 633 mmHg 89%
    19:00 +20°C° 0.6 mm 1 mps 634 mmHg 92%
    20:00 +20°C° 1 mm 1 mps 634 mmHg 90%
    21:00 +19°C° 1 mm 1 mps 634 mmHg 89%
    22:00 +19°C° 1 mm 1 mps 635 mmHg 88%
    23:00 +19°C° 0.2 mm 1 mps 634 mmHg 87%

    Day after tomorrow, 25 November, Monday

    Time Temperature Precipitation Wind Pressure Humidity
    00:00 +18°C° 0.2 mm 1 mps 634 mmHg 86%
    01:00 +18°C° 0.2 mm 1 mps 634 mmHg 85%
    02:00 +18°C° 0 mm 1 mps 634 mmHg 84%
    03:00 +18°C° 0 mm 1 mps 633 mmHg 84%
    04:00 +18°C° 0 mm 1 mps 633 mmHg 83%
    05:00 +18°C° 0 mm 1 mps 634 mmHg 82%
    06:00 +19°C° 0 mm 1 mps 634 mmHg 81%
    07:00 +20°C° 0 mm 1 mps 635 mmHg 80%
    08:00 +21°C° 0.1 mm 1 mps 635 mmHg 79%
    09:00 +23°C° 0.1 mm 1 mps 636 mmHg 77%
    10:00 +24°C° 0.1 mm 1 mps 636 mmHg 75%
    11:00 +24°C° 0.3 mm 1 mps 635 mmHg 75%
    12:00 +25°C° 0.3 mm 1 mps 634 mmHg 75%
    13:00 +25°C° 0.3 mm 1 mps 633 mmHg 75%
    14:00 +25°C° 0.5 mm 1 mps 633 mmHg 77%
    15:00 +22°C° 0.5 mm 0 mps 633 mmHg 79%
    16:00 +22°C° 0.5 mm 0 mps 632 mmHg 81%
    17:00 +23°C° 0.8 mm 1 mps 632 mmHg 84%
    18:00 +21°C° 0.8 mm 1 mps 633 mmHg 86%
    19:00 +20°C° 0.8 mm 1 mps 633 mmHg 89%
    20:00 +19°C° 0.2 mm 2 mps 633 mmHg 88%
    21:00 +18°C° 0.2 mm 2 mps 634 mmHg 86%
    22:00 +18°C° 0.2 mm 2 mps 634 mmHg 85%
    23:00 +18°C° 0.2 mm 2 mps 634 mmHg 85%

    26 November, Tuesday

    Time Temperature Precipitation Wind Pressure Humidity
    00:00 +17°C° 0.2 mm 2 mps 633 mmHg 84%
    01:00 +17°C° 0.2 mm 2 mps 633 mmHg 84%
    02:00 +18°C° 0.2 mm 1 mps 633 mmHg 84%
    03:00 +18°C° 0.2 mm 1 mps 633 mmHg 84%
    04:00 +19°C° 0.2 mm 1 mps 633 mmHg 84%
    05:00 +19°C° 0 mm 1 mps 634 mmHg 83%
    06:00 +20°C° 0 mm 1 mps 634 mmHg 83%
    07:00 +18°C° 0 mm 0 mps 635 mmHg 83%
    08:00 +21°C° 0.1 mm 1 mps 635 mmHg 81%
    09:00 +23°C° 0.1 mm 1 mps 636 mmHg 80%
    10:00 +24°C° 0.1 mm 1 mps 636 mmHg 78%
    11:00 +24°C° 0.6 mm 1 mps 636 mmHg 77%
    12:00 +25°C° 0.6 mm 1 mps 635 mmHg 75%
    13:00 +25°C° 0.6 mm 1 mps 634 mmHg 74%
    14:00 +25°C° 0.6 mm 1 mps 634 mmHg 75%
    15:00 +25°C° 0.6 mm 1 mps 633 mmHg 77%
    16:00 +22°C° 0.6 mm 0 mps 633 mmHg 79%
    17:00 +23°C° 0.4 mm 1 mps 633 mmHg 81%
    18:00 +22°C° 0.4 mm 1 mps 633 mmHg 84%
    19:00 +19°C° 0.4 mm 2 mps 633 mmHg 86%
    20:00 +19°C° 0 mm 2 mps 634 mmHg 84%
    21:00 +19°C° 0 mm 2 mps 634 mmHg 82%
    22:00 +18°C° 0 mm 2 mps 634 mmHg 80%
    23:00 +18°C° 0 mm 2 mps 634 mmHg 79%

    27 November, Wednesday

    Time Temperature Precipitation Wind Pressure Humidity
    00:00 +18°C° 0 mm 2 mps 634 mmHg 79%
    01:00 +18°C° 0 mm 2 mps 634 mmHg 78%
    02:00 +18°C° 0 mm 2 mps 633 mmHg 78%
    03:00 +17°C° 0 mm 2 mps 633 mmHg 77%
    04:00 +17°C° 0 mm 2 mps 633 mmHg 77%
    05:00 +19°C° 0 mm 1 mps 634 mmHg 77%
    06:00 +20°C° 0 mm 1 mps 635 mmHg 77%
    07:00 +21°C° 0 mm 1 mps 635 mmHg 77%
    08:00 +22°C° 0 mm 1 mps 636 mmHg 73%
    09:00 +24°C° 0 mm 1 mps 636 mmHg 70%
    10:00 +25°C° 0 mm 1 mps 637 mmHg 67%
    11:00 +25°C° 0.4 mm 1 mps 636 mmHg 67%
    12:00 +26°C° 0.4 mm 1 mps 635 mmHg 68%
    13:00 +26°C° 0.4 mm 1 mps 635 mmHg 69%
    14:00 +26°C° 0.6 mm 1 mps 634 mmHg 71%
    15:00 +23°C° 0.6 mm 0 mps 634 mmHg 73%
    16:00 +23°C° 0.6 mm 0 mps 633 mmHg 76%
    17:00 +23°C° 0.2 mm 1 mps 633 mmHg 79%
    18:00 +22°C° 0.2 mm 1 mps 634 mmHg 82%
    19:00 +19°C° 0.2 mm 2 mps 634 mmHg 85%
    20:00 +19°C° 0 mm 2 mps 634 mmHg 84%
    21:00 +19°C° 0 mm 2 mps 634 mmHg 82%
    22:00 +18°C° 0 mm 2 mps 635 mmHg 81%
    23:00 +18°C° 0 mm 2 mps 634 mmHg 80%

    28 November, Thursday

    Time Temperature Precipitation Wind Pressure Humidity
    00:00 +18°C° 0 mm 2 mps 634 mmHg 79%
    01:00 +18°C° 0 mm 2 mps 634 mmHg 78%
    02:00 +18°C° 0 mm 2 mps 633 mmHg 78%
    03:00 +19°C° 0 mm 1 mps 633 mmHg 77%
    04:00 +18°C° 0 mm 1 mps 633 mmHg 76%
    05:00 +19°C° 0 mm 1 mps 634 mmHg 75%
    06:00 +20°C° 0 mm 1 mps 634 mmHg 74%
    07:00 +21°C° 0 mm 1 mps 635 mmHg 73%
    08:00 +22°C° 0 mm 1 mps 636 mmHg 69%
    09:00 +24°C° 0 mm 1 mps 636 mmHg 65%
    10:00 +25°C° 0 mm 1 mps 637 mmHg 61%
    11:00 +26°C° 0.1 mm 1 mps 636 mmHg 62%
    12:00 +26°C° 0.1 mm 1 mps 635 mmHg 63%
    13:00 +27°C° 0.1 mm 1 mps 635 mmHg 63%
    14:00 +26°C° 0.4 mm 1 mps 634 mmHg 68%
    15:00 +25°C° 0.4 mm 1 mps 633 mmHg 72%
    16:00 +23°C° 0.4 mm 0 mps 633 mmHg 76%
    17:00 +23°C° 0.3 mm 1 mps 633 mmHg 79%
    18:00 +22°C° 0.3 mm 1 mps 633 mmHg 82%
    19:00 +19°C° 0.3 mm 2 mps 633 mmHg 85%
    20:00 +19°C° 0.1 mm 2 mps 634 mmHg 82%
    21:00 +18°C° 0.1 mm 2 mps 634 mmHg 78%
    22:00 +18°C° 0.1 mm 2 mps 634 mmHg 75%
    23:00 +18°C° 0 mm 2 mps 634 mmHg 73%
    Show more